Location: Del Amo
(33.8464°N, 118.2104°W)
Time: 03:04:48
(UTC+00:00)

Courier 1B - Pass Details

Date: 14 September 2024
Orbit: 962 x 1208 km, 28.3° (Epoch: 08 October)

Event Time Altitude Azimuth Distance (km) Brightness Sun altitude
Rises 03:37:54 0° 270° (W) 4,092 12.1 -20.5°
Reaches altitude 10° 03:41:09 10° 260° (W) 3,138 11.0 -21.1°
Maximum altitude 03:47:40 29° 204° (SSW) 2,039 9.2 -22.4°
Enters shadow 03:51:15 21° 164° (SSE) 2,417 9.2 -23.1°
